Year,Month,Day,Hour,Minute,Value (Times are PST for temperature in C)
2016,07,21,00,00,18.20
2016,07,21,00,01,18.20
2016,07,21,00,02,18.20
2016,07,21,00,03,18.10
2016,07,21,00,04,18.10
2016,07,21,00,05,18.10
2016,07,21,00,06,18.10
2016,07,21,00,07,18.10
2016,07,21,00,08,18.10
2016,07,21,00,09,18.10
2016,07,21,00,10,18.10
2016,07,21,00,11,18.10
2016,07,21,00,12,18.00
2016,07,21,00,13,18.00
2016,07,21,00,14,18.00
2016,07,21,00,15,18.00
2016,07,21,00,16,18.00
2016,07,21,00,17,18.00
2016,07,21,00,18,18.00
2016,07,21,00,19,17.90
2016,07,21,00,20,17.90
2016,07,21,00,21,17.90
2016,07,21,00,22,17.90
2016,07,21,00,23,17.90
2016,07,21,00,24,17.90
2016,07,21,00,25,17.90
2016,07,21,00,26,17.90
2016,07,21,00,27,17.90
2016,07,21,00,28,17.90
2016,07,21,00,29,17.90
2016,07,21,00,30,17.90
2016,07,21,00,31,17.90
2016,07,21,00,32,17.80
2016,07,21,00,33,17.80
2016,07,21,00,34,17.80
2016,07,21,00,35,17.80
2016,07,21,00,36,17.80
2016,07,21,00,37,17.80
2016,07,21,00,38,17.80
2016,07,21,00,39,17.80
2016,07,21,00,40,17.80
2016,07,21,00,41,17.80
2016,07,21,00,42,17.80
2016,07,21,00,43,17.80
2016,07,21,00,44,17.80
2016,07,21,00,45,17.80
2016,07,21,00,46,17.80
2016,07,21,00,47,17.80
2016,07,21,00,48,17.80
2016,07,21,00,49,17.90
2016,07,21,00,50,17.90
2016,07,21,00,51,17.90
2016,07,21,00,52,17.90
2016,07,21,00,53,17.90
2016,07,21,00,54,17.90
2016,07,21,00,55,17.90
2016,07,21,00,56,17.90
2016,07,21,00,57,17.90
2016,07,21,00,58,17.90
2016,07,21,00,59,17.90
2016,07,21,01,00,17.80
2016,07,21,01,01,17.80
2016,07,21,01,02,17.80
2016,07,21,01,03,17.80
2016,07,21,01,04,17.80
2016,07,21,01,05,17.80
2016,07,21,01,06,17.80
2016,07,21,01,07,17.80
2016,07,21,01,08,17.80
2016,07,21,01,09,17.80
2016,07,21,01,10,17.80
2016,07,21,01,11,17.80
2016,07,21,01,12,17.80
2016,07,21,01,13,17.80
2016,07,21,01,14,17.80
2016,07,21,01,15,17.80
2016,07,21,01,16,17.80
2016,07,21,01,17,17.80
2016,07,21,01,18,17.80
2016,07,21,01,19,17.80
2016,07,21,01,20,17.80
2016,07,21,01,21,17.80
2016,07,21,01,22,17.80
2016,07,21,01,23,17.80
2016,07,21,01,24,17.80
2016,07,21,01,25,17.80
2016,07,21,01,26,17.80
2016,07,21,01,27,17.80
2016,07,21,01,28,17.80
2016,07,21,01,29,17.80
2016,07,21,01,30,17.80
2016,07,21,01,31,17.80
2016,07,21,01,32,17.80
2016,07,21,01,33,17.80
2016,07,21,01,34,17.80
2016,07,21,01,35,17.80
2016,07,21,01,36,17.80
2016,07,21,01,37,17.80
2016,07,21,01,38,17.80
2016,07,21,01,39,17.80
2016,07,21,01,40,17.80
2016,07,21,01,41,17.80
2016,07,21,01,42,17.80
2016,07,21,01,43,17.80
2016,07,21,01,44,17.80
2016,07,21,01,45,17.80
2016,07,21,01,46,17.80
2016,07,21,01,47,17.80
2016,07,21,01,48,17.80
2016,07,21,01,49,17.70
2016,07,21,01,50,17.70
2016,07,21,01,51,17.70
2016,07,21,01,52,17.70
2016,07,21,01,53,17.70
2016,07,21,01,54,17.70
2016,07,21,01,55,17.70
2016,07,21,01,56,17.70
2016,07,21,01,57,17.70
2016,07,21,01,58,17.60
2016,07,21,01,59,17.60
2016,07,21,02,00,17.60
2016,07,21,02,01,17.60
2016,07,21,02,02,17.60
2016,07,21,02,03,17.60
2016,07,21,02,04,17.60
2016,07,21,02,05,17.50
2016,07,21,02,06,17.50
2016,07,21,02,07,17.50
2016,07,21,02,08,17.50
2016,07,21,02,09,17.40
2016,07,21,02,10,17.40
2016,07,21,02,11,17.40
2016,07,21,02,12,17.40
2016,07,21,02,13,17.40
2016,07,21,02,14,17.40
2016,07,21,02,15,17.40
2016,07,21,02,16,17.40
2016,07,21,02,17,17.40
2016,07,21,02,18,17.40
2016,07,21,02,19,17.40
2016,07,21,02,20,17.40
2016,07,21,02,21,17.40
2016,07,21,02,22,17.40
2016,07,21,02,23,17.40
2016,07,21,02,24,17.40
2016,07,21,02,25,17.40
2016,07,21,02,26,17.40
2016,07,21,02,27,17.40
2016,07,21,02,28,17.40
2016,07,21,02,29,17.40
2016,07,21,02,30,17.40
2016,07,21,02,31,17.40
2016,07,21,02,32,17.40
2016,07,21,02,33,17.40
2016,07,21,02,34,17.40
2016,07,21,02,35,17.40
2016,07,21,02,36,17.40
2016,07,21,02,37,17.40
2016,07,21,02,38,17.40
2016,07,21,02,39,17.40
2016,07,21,02,40,17.40
2016,07,21,02,41,17.40
2016,07,21,02,42,17.40
2016,07,21,02,43,17.40
2016,07,21,02,44,17.30
2016,07,21,02,45,17.30
2016,07,21,02,46,17.30
2016,07,21,02,47,17.30
2016,07,21,02,48,17.30
2016,07,21,02,49,17.30
2016,07,21,02,50,17.30
2016,07,21,02,51,17.30
2016,07,21,02,52,17.30
2016,07,21,02,53,17.30
2016,07,21,02,54,17.30
2016,07,21,02,55,17.30
2016,07,21,02,56,17.30
2016,07,21,02,57,17.20
2016,07,21,02,58,17.20
2016,07,21,02,59,17.20
2016,07,21,03,00,17.20
2016,07,21,03,01,17.20
2016,07,21,03,02,17.10
2016,07,21,03,03,17.10
2016,07,21,03,04,17.10
2016,07,21,03,05,17.10
2016,07,21,03,06,17.10
2016,07,21,03,07,17.10
2016,07,21,03,08,17.10
2016,07,21,03,09,17.10
2016,07,21,03,10,17.10
2016,07,21,03,11,17.10
2016,07,21,03,12,17.10
2016,07,21,03,13,17.10
2016,07,21,03,14,17.10
2016,07,21,03,15,17.10
2016,07,21,03,16,17.10
2016,07,21,03,17,17.10
2016,07,21,03,18,17.10
2016,07,21,03,19,17.10
2016,07,21,03,20,17.10
2016,07,21,03,21,17.10
2016,07,21,03,22,17.10
2016,07,21,03,23,17.10
2016,07,21,03,24,17.10
2016,07,21,03,25,17.10
2016,07,21,03,26,17.10
2016,07,21,03,27,17.10
2016,07,21,03,28,17.10
2016,07,21,03,29,17.10
2016,07,21,03,30,17.10
2016,07,21,03,31,17.10
2016,07,21,03,32,17.10
2016,07,21,03,33,17.10
2016,07,21,03,34,17.10
2016,07,21,03,35,17.10
2016,07,21,03,36,17.10
2016,07,21,03,37,17.10
2016,07,21,03,38,17.10
2016,07,21,03,39,17.10
2016,07,21,03,40,17.10
2016,07,21,03,41,17.10
2016,07,21,03,42,17.10
2016,07,21,03,43,17.10
2016,07,21,03,44,17.10
2016,07,21,03,45,17.10
2016,07,21,03,46,17.10
2016,07,21,03,47,17.10
2016,07,21,03,48,17.10
2016,07,21,03,49,17.00
2016,07,21,03,50,17.00
2016,07,21,03,51,17.10
2016,07,21,03,52,17.00
2016,07,21,03,53,17.00
2016,07,21,03,54,17.00
2016,07,21,03,55,17.00
2016,07,21,03,56,17.00
2016,07,21,03,57,16.90
2016,07,21,03,58,16.90
2016,07,21,03,59,16.90
2016,07,21,04,00,16.90
2016,07,21,04,01,16.90
2016,07,21,04,02,16.90
2016,07,21,04,03,16.80
2016,07,21,04,04,16.80
2016,07,21,04,05,16.80
2016,07,21,04,06,16.80
2016,07,21,04,07,16.80
2016,07,21,04,08,16.80
2016,07,21,04,09,16.80
2016,07,21,04,10,16.80
2016,07,21,04,11,16.70
2016,07,21,04,12,16.70
2016,07,21,04,13,16.70
2016,07,21,04,14,16.70
2016,07,21,04,15,16.70
2016,07,21,04,16,16.70
2016,07,21,04,17,16.70
2016,07,21,04,18,16.70
2016,07,21,04,19,16.70
2016,07,21,04,20,16.70
2016,07,21,04,21,16.60
2016,07,21,04,22,16.60
2016,07,21,04,23,16.60
2016,07,21,04,24,16.60
2016,07,21,04,25,16.60
2016,07,21,04,26,16.60
2016,07,21,04,27,16.60
2016,07,21,04,28,16.60
2016,07,21,04,29,16.60
2016,07,21,04,30,16.50
2016,07,21,04,31,16.50
2016,07,21,04,32,16.50
2016,07,21,04,33,16.50
2016,07,21,04,34,16.50
2016,07,21,04,35,16.50
2016,07,21,04,36,16.50
2016,07,21,04,37,16.40
2016,07,21,04,38,16.40
2016,07,21,04,39,16.40
2016,07,21,04,40,16.40
2016,07,21,04,41,16.40
2016,07,21,04,42,16.40
2016,07,21,04,43,16.40
2016,07,21,04,44,16.40
2016,07,21,04,45,16.50
2016,07,21,04,46,16.50
2016,07,21,04,47,16.50
2016,07,21,04,48,16.50
2016,07,21,04,49,16.50
2016,07,21,04,50,16.50
2016,07,21,04,51,16.50
2016,07,21,04,52,16.50
2016,07,21,04,53,16.50
2016,07,21,04,54,16.50
2016,07,21,04,55,16.50
2016,07,21,04,56,16.50
2016,07,21,04,57,16.50
2016,07,21,04,58,16.50
2016,07,21,04,59,16.50
2016,07,21,05,00,16.40
2016,07,21,05,01,16.40
2016,07,21,05,02,16.40
2016,07,21,05,03,16.40
2016,07,21,05,04,16.40
2016,07,21,05,05,16.40
2016,07,21,05,06,16.40
2016,07,21,05,07,16.40
2016,07,21,05,08,16.40
2016,07,21,05,09,16.30
2016,07,21,05,10,16.30
2016,07,21,05,11,16.30
2016,07,21,05,12,16.30
2016,07,21,05,13,16.30
2016,07,21,05,14,16.20
2016,07,21,05,15,16.20
2016,07,21,05,16,16.20
2016,07,21,05,17,16.20
2016,07,21,05,18,16.20
2016,07,21,05,19,16.20
2016,07,21,05,20,16.20
2016,07,21,05,21,16.20
2016,07,21,05,22,16.20
2016,07,21,05,23,16.20
2016,07,21,05,24,16.20
2016,07,21,05,25,16.20
2016,07,21,05,26,16.20
2016,07,21,05,27,16.20
2016,07,21,05,28,16.30
2016,07,21,05,29,16.30
2016,07,21,05,30,16.30
2016,07,21,05,31,16.30
2016,07,21,05,32,16.30
2016,07,21,05,33,16.30
2016,07,21,05,34,16.20
2016,07,21,05,35,16.20
2016,07,21,05,36,16.20
2016,07,21,05,37,16.20
2016,07,21,05,38,16.20
2016,07,21,05,39,16.20
2016,07,21,05,40,16.20
2016,07,21,05,41,16.10
2016,07,21,05,42,16.10
2016,07,21,05,43,16.10
2016,07,21,05,44,16.00
2016,07,21,05,45,16.00
2016,07,21,05,46,16.00
2016,07,21,05,47,15.90
2016,07,21,05,48,15.90
2016,07,21,05,49,15.90
2016,07,21,05,50,15.90
2016,07,21,05,51,15.80
2016,07,21,05,52,15.80
2016,07,21,05,53,15.80
2016,07,21,05,54,15.80
2016,07,21,05,55,15.80
2016,07,21,05,56,15.80
2016,07,21,05,57,15.80
2016,07,21,05,58,15.80
2016,07,21,05,59,15.80
2016,07,21,06,00,15.70
2016,07,21,06,01,15.70
2016,07,21,06,02,15.70
2016,07,21,06,03,15.70
2016,07,21,06,04,15.70
2016,07,21,06,05,15.70
2016,07,21,06,06,15.70
2016,07,21,06,07,15.70
2016,07,21,06,08,15.70
2016,07,21,06,09,15.70
2016,07,21,06,10,15.70
2016,07,21,06,11,15.70
2016,07,21,06,12,15.70
2016,07,21,06,13,15.70
2016,07,21,06,14,15.70
2016,07,21,06,15,15.70
2016,07,21,06,16,15.70
2016,07,21,06,17,15.70
2016,07,21,06,18,15.70
2016,07,21,06,19,15.70
2016,07,21,06,20,15.70
2016,07,21,06,21,15.70
2016,07,21,06,22,15.70
2016,07,21,06,23,15.80
2016,07,21,06,24,15.70
2016,07,21,06,25,15.70
2016,07,21,06,26,15.70
2016,07,21,06,27,15.70
2016,07,21,06,28,15.70
2016,07,21,06,29,15.70
2016,07,21,06,30,15.70
2016,07,21,06,31,15.70
2016,07,21,06,32,15.70
2016,07,21,06,33,15.70
2016,07,21,06,34,15.70
2016,07,21,06,35,15.70
2016,07,21,06,36,15.70
2016,07,21,06,37,15.70
2016,07,21,06,38,15.70
2016,07,21,06,39,15.70
2016,07,21,06,40,15.70
2016,07,21,06,41,15.70
2016,07,21,06,42,15.70
2016,07,21,06,43,15.70
2016,07,21,06,44,15.70
2016,07,21,06,45,15.70
2016,07,21,06,46,15.70
2016,07,21,06,47,15.70
2016,07,21,06,48,15.70
2016,07,21,06,49,15.70
2016,07,21,06,50,15.70
2016,07,21,06,51,15.70
2016,07,21,06,52,15.70
2016,07,21,06,53,15.70
2016,07,21,06,54,15.80
2016,07,21,06,55,15.80
2016,07,21,06,56,15.80
2016,07,21,06,57,15.80
2016,07,21,06,58,15.80
2016,07,21,06,59,15.80
2016,07,21,07,00,15.80
2016,07,21,07,01,15.90
2016,07,21,07,02,15.90
2016,07,21,07,03,15.90
2016,07,21,07,04,15.90
2016,07,21,07,05,15.90
2016,07,21,07,06,16.00
2016,07,21,07,07,16.00
2016,07,21,07,08,16.00
2016,07,21,07,09,16.00
2016,07,21,07,10,16.10
2016,07,21,07,11,16.10
2016,07,21,07,12,16.10
2016,07,21,07,13,16.10
2016,07,21,07,14,16.10
2016,07,21,07,15,16.10
2016,07,21,07,16,16.10
2016,07,21,07,17,16.10
2016,07,21,07,18,16.20
2016,07,21,07,19,16.20
2016,07,21,07,20,16.20
2016,07,21,07,21,16.20
2016,07,21,07,22,16.20
2016,07,21,07,23,16.20
2016,07,21,07,24,16.20
2016,07,21,07,25,16.30
2016,07,21,07,26,16.30
2016,07,21,07,27,16.30
2016,07,21,07,28,16.30
2016,07,21,07,29,16.30
2016,07,21,07,30,16.30
2016,07,21,07,31,16.30
2016,07,21,07,32,16.30
2016,07,21,07,33,16.30
2016,07,21,07,34,16.40
2016,07,21,07,35,16.40
2016,07,21,07,36,16.40
2016,07,21,07,37,16.40
2016,07,21,07,38,16.40
2016,07,21,07,39,16.40
2016,07,21,07,40,16.40
2016,07,21,07,41,16.40
2016,07,21,07,42,16.40
2016,07,21,07,43,16.40
2016,07,21,07,44,16.40
2016,07,21,07,45,16.40
2016,07,21,07,46,16.40
2016,07,21,07,47,16.40
2016,07,21,07,48,16.40
2016,07,21,07,49,16.40
2016,07,21,07,50,16.40
2016,07,21,07,51,16.40
2016,07,21,07,52,16.40
2016,07,21,07,53,16.40
2016,07,21,07,54,16.40
2016,07,21,07,55,16.50
2016,07,21,07,56,16.50
2016,07,21,07,57,16.60
2016,07,21,07,58,16.60
2016,07,21,07,59,16.70
2016,07,21,08,00,16.70
2016,07,21,08,01,16.70
2016,07,21,08,02,16.70
2016,07,21,08,03,16.80
2016,07,21,08,04,16.80
2016,07,21,08,05,16.90
2016,07,21,08,06,16.90
2016,07,21,08,07,17.00
2016,07,21,08,08,17.00
2016,07,21,08,09,17.10
2016,07,21,08,10,17.10
2016,07,21,08,11,17.10
2016,07,21,08,12,17.10
2016,07,21,08,13,17.10
2016,07,21,08,14,17.20
2016,07,21,08,15,17.20
2016,07,21,08,16,17.20
2016,07,21,08,17,17.20
2016,07,21,08,18,17.30
2016,07,21,08,19,17.30
2016,07,21,08,20,17.40
2016,07,21,08,21,17.40
2016,07,21,08,22,17.40
2016,07,21,08,23,17.30
2016,07,21,08,24,17.30
2016,07,21,08,25,17.30
2016,07,21,08,26,17.30
2016,07,21,08,27,17.30
2016,07,21,08,28,17.30
2016,07,21,08,29,17.40
2016,07,21,08,30,17.40
2016,07,21,08,31,17.40
2016,07,21,08,32,17.40
2016,07,21,08,33,17.50
2016,07,21,08,34,17.60
2016,07,21,08,35,17.60
2016,07,21,08,36,17.70
2016,07,21,08,37,17.80
2016,07,21,08,38,17.80
2016,07,21,08,39,17.90
2016,07,21,08,40,17.90
2016,07,21,08,41,18.00
2016,07,21,08,42,18.00
2016,07,21,08,43,18.00
2016,07,21,08,44,18.10
2016,07,21,08,45,18.10
2016,07,21,08,46,18.20
2016,07,21,08,47,18.20
2016,07,21,08,48,18.30
2016,07,21,08,49,18.30
2016,07,21,08,50,18.40
2016,07,21,08,51,18.40
2016,07,21,08,52,18.50
2016,07,21,08,53,18.50
2016,07,21,08,54,18.60
2016,07,21,08,55,18.60
2016,07,21,08,56,18.70
2016,07,21,08,57,18.70
2016,07,21,08,58,18.70
2016,07,21,08,59,18.80
2016,07,21,09,00,18.80
2016,07,21,09,01,18.80
2016,07,21,09,02,18.90
2016,07,21,09,03,18.90
2016,07,21,09,04,19.00
2016,07,21,09,05,19.00
2016,07,21,09,06,19.10
2016,07,21,09,07,19.10
2016,07,21,09,08,19.20
2016,07,21,09,09,19.20
2016,07,21,09,10,19.30
2016,07,21,09,11,19.30
2016,07,21,09,12,19.40
2016,07,21,09,13,19.50
2016,07,21,09,14,19.50
2016,07,21,09,15,19.60
2016,07,21,09,16,19.60
2016,07,21,09,17,19.70
2016,07,21,09,18,19.70
2016,07,21,09,19,19.80
2016,07,21,09,20,19.80
2016,07,21,09,21,19.80
2016,07,21,09,22,19.90
2016,07,21,09,23,19.90
2016,07,21,09,24,19.90
2016,07,21,09,25,19.90
2016,07,21,09,26,19.90
2016,07,21,09,27,19.90
2016,07,21,09,28,19.90
2016,07,21,09,29,19.90
2016,07,21,09,30,19.90
2016,07,21,09,31,20.00
2016,07,21,09,32,20.00
2016,07,21,09,33,20.00
2016,07,21,09,34,20.00
2016,07,21,09,35,20.00
2016,07,21,09,36,20.00
2016,07,21,09,37,20.00
2016,07,21,09,38,20.10
2016,07,21,09,39,20.10
2016,07,21,09,40,20.10
2016,07,21,09,41,20.10
2016,07,21,09,42,20.20
2016,07,21,09,43,20.20
2016,07,21,09,44,20.30
2016,07,21,09,45,20.30
2016,07,21,09,46,20.40
2016,07,21,09,47,20.40
2016,07,21,09,48,20.40
2016,07,21,09,49,20.50
2016,07,21,09,50,20.50
2016,07,21,09,51,20.60
2016,07,21,09,52,20.60
2016,07,21,09,53,20.60
2016,07,21,09,54,20.60
2016,07,21,09,55,20.60
2016,07,21,09,56,20.60
2016,07,21,09,57,20.70
2016,07,21,09,58,20.70
2016,07,21,09,59,20.70
2016,07,21,10,00,20.60
2016,07,21,10,01,20.60
2016,07,21,10,02,20.60
2016,07,21,10,03,20.60
2016,07,21,10,04,20.60
2016,07,21,10,05,20.70
2016,07,21,10,06,20.70
2016,07,21,10,07,20.80
2016,07,21,10,08,20.70
2016,07,21,10,09,20.70
2016,07,21,10,10,20.70
2016,07,21,10,11,20.70
2016,07,21,10,12,20.70
2016,07,21,10,13,20.70
2016,07,21,10,14,20.70
2016,07,21,10,15,20.70
2016,07,21,10,16,20.70
2016,07,21,10,17,20.70
2016,07,21,10,18,20.80
2016,07,21,10,19,20.80
2016,07,21,10,20,20.90
2016,07,21,10,21,21.00
2016,07,21,10,22,21.10
2016,07,21,10,23,21.10
2016,07,21,10,24,21.10
2016,07,21,10,25,21.20
2016,07,21,10,26,21.20
2016,07,21,10,27,21.30
2016,07,21,10,28,21.40
2016,07,21,10,29,21.40
2016,07,21,10,30,21.50
2016,07,21,10,31,21.50
2016,07,21,10,32,21.60
2016,07,21,10,33,21.60
2016,07,21,10,34,21.70
2016,07,21,10,35,21.70
2016,07,21,10,36,21.70
2016,07,21,10,37,21.70
2016,07,21,10,38,21.80
2016,07,21,10,39,21.80
2016,07,21,10,40,21.80
2016,07,21,10,41,21.80
2016,07,21,10,42,21.80
2016,07,21,10,43,21.80
2016,07,21,10,44,21.80
2016,07,21,10,45,21.80
2016,07,21,10,46,21.70
2016,07,21,10,47,21.70
2016,07,21,10,48,21.70
2016,07,21,10,49,21.70
2016,07,21,10,50,21.70
2016,07,21,10,51,21.70
2016,07,21,10,52,21.70
2016,07,21,10,53,21.70
2016,07,21,10,54,21.70
2016,07,21,10,55,21.70
2016,07,21,10,56,21.70
2016,07,21,10,57,21.70
2016,07,21,10,58,21.80
2016,07,21,10,59,21.80
2016,07,21,11,00,21.90
2016,07,21,11,01,22.00
2016,07,21,11,02,22.00
2016,07,21,11,03,22.00
2016,07,21,11,04,22.00
2016,07,21,11,05,22.00
2016,07,21,11,06,22.10
2016,07,21,11,07,22.00
2016,07,21,11,08,22.10
2016,07,21,11,09,22.10
2016,07,21,11,10,22.20
2016,07,21,11,11,22.30
2016,07,21,11,12,22.30
2016,07,21,11,13,22.40
2016,07,21,11,14,22.40
2016,07,21,11,15,22.40
2016,07,21,11,16,22.30
2016,07,21,11,17,22.30
2016,07,21,11,18,22.30
2016,07,21,11,19,22.20
2016,07,21,11,20,22.20
2016,07,21,11,21,22.20
2016,07,21,11,22,22.20
2016,07,21,11,23,22.20
2016,07,21,11,24,22.30
2016,07,21,11,25,22.40
2016,07,21,11,26,22.40
2016,07,21,11,27,22.40
2016,07,21,11,28,22.50
2016,07,21,11,29,22.50
2016,07,21,11,30,22.50
2016,07,21,11,31,22.50
2016,07,21,11,32,22.60
2016,07,21,11,33,22.60
2016,07,21,11,34,22.60
2016,07,21,11,35,22.70
2016,07,21,11,36,22.60
2016,07,21,11,37,22.50
2016,07,21,11,38,22.50
2016,07,21,11,39,22.50
2016,07,21,11,40,22.50
2016,07,21,11,41,22.60
2016,07,21,11,42,22.70
2016,07,21,11,43,22.70
2016,07,21,11,44,22.80
2016,07,21,11,45,22.90
2016,07,21,11,46,23.00
2016,07,21,11,47,23.10
2016,07,21,11,48,23.10
2016,07,21,11,49,23.20
2016,07,21,11,50,23.30
2016,07,21,11,51,23.40
2016,07,21,11,52,23.30
2016,07,21,11,53,23.30
2016,07,21,11,54,23.30
2016,07,21,11,55,23.30
2016,07,21,11,56,23.30
2016,07,21,11,57,23.30
2016,07,21,11,58,23.40
2016,07,21,11,59,23.40
2016,07,21,12,00,23.40
2016,07,21,12,01,23.50
2016,07,21,12,02,23.50
2016,07,21,12,03,23.60
2016,07,21,12,04,23.60
2016,07,21,12,05,23.70
2016,07,21,12,06,23.80
2016,07,21,12,07,23.80
2016,07,21,12,08,23.90
2016,07,21,12,09,23.90
2016,07,21,12,10,23.90
2016,07,21,12,11,23.90
2016,07,21,12,12,23.90
2016,07,21,12,13,24.00
2016,07,21,12,14,24.10
2016,07,21,12,15,24.10
2016,07,21,12,16,24.10
2016,07,21,12,17,24.10
2016,07,21,12,18,24.10
2016,07,21,12,19,24.00
2016,07,21,12,20,24.10
2016,07,21,12,21,24.10
2016,07,21,12,22,24.10
2016,07,21,12,23,24.10
2016,07,21,12,24,24.20
2016,07,21,12,25,24.20
2016,07,21,12,26,24.20
2016,07,21,12,27,24.20
2016,07,21,12,28,24.30
2016,07,21,12,29,24.30
2016,07,21,12,30,24.40
2016,07,21,12,31,24.50
2016,07,21,12,32,24.60
2016,07,21,12,33,24.70
2016,07,21,12,34,24.70
2016,07,21,12,35,24.70
2016,07,21,12,36,24.80
2016,07,21,12,37,24.80
2016,07,21,12,38,24.80
2016,07,21,12,39,24.80
2016,07,21,12,40,24.90
2016,07,21,12,41,24.90
2016,07,21,12,42,24.80
2016,07,21,12,43,24.80
2016,07,21,12,44,24.70
2016,07,21,12,45,24.60
2016,07,21,12,46,24.60
2016,07,21,12,47,24.50
2016,07,21,12,48,24.40
2016,07,21,12,49,24.50
2016,07,21,12,50,24.50
2016,07,21,12,51,24.60
2016,07,21,12,52,24.70
2016,07,21,12,53,24.80
2016,07,21,12,54,24.90
2016,07,21,12,55,24.90
2016,07,21,12,56,24.90
2016,07,21,12,57,24.90
2016,07,21,12,58,24.90
2016,07,21,12,59,24.90
2016,07,21,13,00,24.90
2016,07,21,13,01,24.90
2016,07,21,13,02,24.90
2016,07,21,13,03,24.70
2016,07,21,13,04,24.70
2016,07,21,13,05,24.70
2016,07,21,13,06,24.70
2016,07,21,13,07,24.70
2016,07,21,13,08,24.60
2016,07,21,13,09,24.60
2016,07,21,13,10,24.50
2016,07,21,13,11,24.50
2016,07,21,13,12,24.50
2016,07,21,13,13,24.50
2016,07,21,13,14,24.50
2016,07,21,13,15,24.50
2016,07,21,13,16,24.50
2016,07,21,13,17,24.50
2016,07,21,13,18,24.40
2016,07,21,13,19,24.50
2016,07,21,13,20,24.50
2016,07,21,13,21,24.50
2016,07,21,13,22,24.60
2016,07,21,13,23,24.60
2016,07,21,13,24,24.70
2016,07,21,13,25,24.70
2016,07,21,13,26,24.60
2016,07,21,13,27,24.60
2016,07,21,13,28,24.60
2016,07,21,13,29,24.50
2016,07,21,13,30,24.50
2016,07,21,13,31,24.50
2016,07,21,13,32,24.60
2016,07,21,13,33,24.60
2016,07,21,13,34,24.60
2016,07,21,13,35,24.60
2016,07,21,13,36,24.70
2016,07,21,13,37,24.70
2016,07,21,13,38,24.80
2016,07,21,13,39,24.80
2016,07,21,13,40,24.80
2016,07,21,13,41,24.90
2016,07,21,13,42,25.00
2016,07,21,13,43,25.00
2016,07,21,13,44,25.10
2016,07,21,13,45,25.20
2016,07,21,13,46,25.30
2016,07,21,13,47,25.40
2016,07,21,13,48,25.40
2016,07,21,13,49,25.50
2016,07,21,13,50,25.70
2016,07,21,13,51,25.80
2016,07,21,13,52,25.80
2016,07,21,13,53,25.80
2016,07,21,13,54,25.80
2016,07,21,13,55,25.80
2016,07,21,13,56,25.70
2016,07,21,13,57,25.80
2016,07,21,13,58,25.80
2016,07,21,13,59,25.90
2016,07,21,14,00,26.00
2016,07,21,14,01,26.10
2016,07,21,14,02,26.10
2016,07,21,14,03,26.20
2016,07,21,14,04,26.30
2016,07,21,14,05,26.30
2016,07,21,14,06,26.20
2016,07,21,14,07,26.20
2016,07,21,14,08,26.20
2016,07,21,14,09,26.20
2016,07,21,14,10,26.20
2016,07,21,14,11,26.30
2016,07,21,14,12,26.30
2016,07,21,14,13,26.40
2016,07,21,14,14,26.40
2016,07,21,14,15,26.50
2016,07,21,14,16,26.50
2016,07,21,14,17,26.50
2016,07,21,14,18,26.60
2016,07,21,14,19,26.60
2016,07,21,14,20,26.60
2016,07,21,14,21,26.70
2016,07,21,14,22,26.70
2016,07,21,14,23,26.80
2016,07,21,14,24,26.90
2016,07,21,14,25,26.90
2016,07,21,14,26,27.00
2016,07,21,14,27,27.00
2016,07,21,14,28,27.10
2016,07,21,14,29,27.10
2016,07,21,14,30,27.10
2016,07,21,14,31,27.10
2016,07,21,14,32,27.10
2016,07,21,14,33,27.10
2016,07,21,14,34,27.10
2016,07,21,14,35,27.00
2016,07,21,14,36,27.00
2016,07,21,14,37,27.00
2016,07,21,14,38,26.90
2016,07,21,14,39,26.90
2016,07,21,14,40,26.90
2016,07,21,14,41,26.90
2016,07,21,14,42,26.90
2016,07,21,14,43,26.80
2016,07,21,14,44,26.80
2016,07,21,14,45,26.80
2016,07,21,14,46,26.80
2016,07,21,14,47,26.80
2016,07,21,14,48,26.90
2016,07,21,14,49,27.00
2016,07,21,14,50,27.10
2016,07,21,14,51,27.10
2016,07,21,14,52,27.10
2016,07,21,14,53,27.10
2016,07,21,14,54,27.20
2016,07,21,14,55,27.20
2016,07,21,14,56,27.30
2016,07,21,14,57,27.30
2016,07,21,14,58,27.30
2016,07,21,14,59,27.30
2016,07,21,15,00,27.30
2016,07,21,15,01,27.30
2016,07,21,15,02,27.30
2016,07,21,15,03,27.30
2016,07,21,15,04,27.30
2016,07,21,15,05,27.30
2016,07,21,15,06,27.30
2016,07,21,15,07,27.30
2016,07,21,15,08,27.30
2016,07,21,15,09,27.30
2016,07,21,15,10,27.30
2016,07,21,15,11,27.30
2016,07,21,15,12,27.30
2016,07,21,15,13,27.30
2016,07,21,15,14,27.30
2016,07,21,15,15,27.20
2016,07,21,15,16,27.20
2016,07,21,15,17,27.20
2016,07,21,15,18,27.10
2016,07,21,15,19,27.10
2016,07,21,15,20,27.10
2016,07,21,15,21,27.10
2016,07,21,15,22,27.10
2016,07,21,15,23,27.10
2016,07,21,15,24,27.10
2016,07,21,15,25,27.10
2016,07,21,15,26,27.00
2016,07,21,15,27,27.00
2016,07,21,15,28,27.00
2016,07,21,15,29,26.90
2016,07,21,15,30,26.90
2016,07,21,15,31,27.00
2016,07,21,15,32,27.10
2016,07,21,15,33,27.10
2016,07,21,15,34,27.10
2016,07,21,15,35,27.00
2016,07,21,15,36,27.00
2016,07,21,15,37,26.90
2016,07,21,15,38,26.90
2016,07,21,15,39,26.80
2016,07,21,15,40,26.70
2016,07,21,15,41,26.70
2016,07,21,15,42,26.70
2016,07,21,15,43,26.60
2016,07,21,15,44,26.60
2016,07,21,15,45,26.50
2016,07,21,15,46,26.50
2016,07,21,15,47,26.40
2016,07,21,15,48,26.40
2016,07,21,15,49,26.40
2016,07,21,15,50,26.40
2016,07,21,15,51,26.40
2016,07,21,15,52,26.40
2016,07,21,15,53,26.40
2016,07,21,15,54,26.40
2016,07,21,15,55,26.50
2016,07,21,15,56,26.50
2016,07,21,15,57,26.50
2016,07,21,15,58,26.50
2016,07,21,15,59,26.40
2016,07,21,16,00,26.40
2016,07,21,16,01,26.50
2016,07,21,16,02,26.50
2016,07,21,16,03,26.60
2016,07,21,16,04,26.60
2016,07,21,16,05,26.70
2016,07,21,16,06,26.80
2016,07,21,16,07,26.90
2016,07,21,16,08,27.00
2016,07,21,16,09,27.20
2016,07,21,16,10,27.20
2016,07,21,16,11,27.30
2016,07,21,16,12,27.30
2016,07,21,16,13,27.30
2016,07,21,16,14,27.30
2016,07,21,16,15,27.20
2016,07,21,16,16,27.20
2016,07,21,16,17,27.20
2016,07,21,16,18,27.20
2016,07,21,16,19,27.10
2016,07,21,16,20,27.00
2016,07,21,16,21,26.90
2016,07,21,16,22,26.90
2016,07,21,16,23,26.80
2016,07,21,16,24,26.70
2016,07,21,16,25,26.70
2016,07,21,16,26,26.60
2016,07,21,16,27,26.50
2016,07,21,16,28,26.50
2016,07,21,16,29,26.50
2016,07,21,16,30,26.50
2016,07,21,16,31,26.60
2016,07,21,16,32,26.60
2016,07,21,16,33,26.60
2016,07,21,16,34,26.60
2016,07,21,16,35,26.50
2016,07,21,16,36,26.50
2016,07,21,16,37,26.40
2016,07,21,16,38,26.30
2016,07,21,16,39,26.20
2016,07,21,16,40,26.20
2016,07,21,16,41,26.10
2016,07,21,16,42,26.00
2016,07,21,16,43,25.90
2016,07,21,16,44,25.90
2016,07,21,16,45,25.90
2016,07,21,16,46,25.90
2016,07,21,16,47,26.00
2016,07,21,16,48,26.10
2016,07,21,16,49,26.20
2016,07,21,16,50,26.30
2016,07,21,16,51,26.30
2016,07,21,16,52,26.40
2016,07,21,16,53,26.50
2016,07,21,16,54,26.60
2016,07,21,16,55,26.70
2016,07,21,16,56,26.70
2016,07,21,16,57,26.80
2016,07,21,16,58,26.80
2016,07,21,16,59,26.90
2016,07,21,17,00,26.90
2016,07,21,17,01,26.90
2016,07,21,17,02,26.90
2016,07,21,17,03,26.90
2016,07,21,17,04,26.90
2016,07,21,17,05,26.80
2016,07,21,17,06,26.80
2016,07,21,17,07,26.90
2016,07,21,17,08,27.00
2016,07,21,17,09,27.00
2016,07,21,17,10,27.00
2016,07,21,17,11,27.00
2016,07,21,17,12,27.00
2016,07,21,17,13,27.00
2016,07,21,17,14,27.10
2016,07,21,17,15,27.10
2016,07,21,17,16,27.20
2016,07,21,17,17,27.10
2016,07,21,17,18,26.90
2016,07,21,17,19,26.90